Tracking 28799 objects as of 18-Apr-2024
HD Live streaming from Space Station
objects crossing your sky now

OBJECT D

Track OBJECT D now!
10-day predictions


NORAD ID: 44882
Int'l Code: 2019-093D
Perigee: 597.4 km
Apogee: 618.7 km
Inclination: 97.8 °
Period: 96.7 minutes
Semi major axis: 6979 km
RCS: Unknown
Launch date: December 20, 2019
Source: (TBD)
Launch site: Taiyaun Space Center, China (TSC)

Note: This is a ROCKET BODY
Your satellite tracking list
Your tracking list is empty




NASA's NSSDC Master Catalog

Two Line Element Set (TLE):
1 44882U 19093D   24109.20853307  .00011307  00000-0  12024-2 0  9995
2 44882  97.8448 191.9494 0015223 146.5108 213.7075 14.89049994234363
Source of the keplerian elements: AFSPC